Regional Weather Roundup
Issued by NWS

Home | Current Version | Previous Version | Graphics & Text | Print | Product List | Glossary On
Versions: 1 2 3 4 5 6 7 8 9 10 11 12 13 14 15 16 17 18 19 20 21 22 23 24 25 26 27 28 29 30 31 32 33 34 35 36 37 38 39 40 41 42 43 44 45 46 47 48 49 50
096
ASUS45 KSLC 251410
RWRUT

UTAH REGIONAL WEATHER ROUNDUP
NATIONAL WEATHER SERVICE SALT LAKE CITY UT
800 AM MDT WED MAY 25 2016

UTZ001>011-023>025-251500-

NORTHERN UTAH

CITY           SKY/WX    TMP DP  RH WIND       PRES   REMARKS
BRIGHAM CITY     N/A     48  43  80 CALM      30.01S
DUGWAY         PTSUNNY   50  39  67 SE3       30.04
HILL AFB       MOSUNNY   48  39  71 E8        30.02R
LOGAN          PTSUNNY   47  45  93 S3        30.02R
OGDEN          MOSUNNY   51  41  68 S8        30.01R
PROVO AIRPORT  MOSUNNY   48  36  61 SE6       30.03R
SALT LAKE CITY PTSUNNY   55  42  61 E3        30.01R
VERNAL         MOSUNNY   50  36  58 E5        30.05R
WENDOVER       CLOUDY    52  37  58 CALM      30.02R
HEBER CITY     MOSUNNY   41  37  87 CALM      30.05R
WEST JORDAN    CLOUDY    52  43  71 S9        30.02R

$$

UTZ012>022-026-027-251500-

SOUTHERN/CENTRAL UTAH

CITY           SKY/WX    TMP DP  RH WIND       PRES   REMARKS
BLANDING       SUNNY     51  30  43 E7        30.18R
BRYCE CANYON   SUNNY     38  25  59 W5        30.14R WCI  34
CEDAR CITY     SUNNY     51  26  37 SE3       30.05R
DELTA          MOSUNNY   48  34  57 CALM      30.03R
HANKSVILLE     SUNNY     52  28  40 CALM      30.07R
MILFORD        SUNNY     46  29  51 S5        30.03R
MOAB/CYNLANDS  SUNNY     62  28  27 CALM      30.02R
PRICE          SUNNY     50  28  42 CALM      30.06R
ST GEORGE      SUNNY     59  25  27 SE6       30.01R

$$

REGIONAL REPORTS     COLORADO/ARIZONA

CITY           SKY/WX    TMP DP  RH WIND       PRES   REMARKS
CRAIG, CO      SUNNY     49  39  68 E3        30.07R
GRAND JUNCTION CLOUDY    56  28  34 S3        30.05R
RIFLE          SUNNY     52  34  50 E3        30.07R
MONTROSE       CLOUDY    54  25  32 SE7       30.11R
CORTEZ         SUNNY     51  29  42 NE3       30.14R
PAGE, AZ       SUNNY     59  19  21 CALM      30.04R
GRAND CANYON   SUNNY     41  19  41 CALM      30.12F
KINGMAN        SUNNY     55  19  24 CALM      30.00R
FLAGSTAFF      SUNNY     47  24  40 NE3       30.14R

$$

REGIONAL REPORTS    NEVADA/IDAHO/WYOMING

CITY           SKY/WX    TMP DP  RH WIND       PRES   REMARKS
LAS VEGAS, NV  MOSUNNY   63  37  38 SW5       29.91R
ELY            MOSUNNY   35  32  88 S10       30.07R WCI  27
ELKO           CLOUDY    45  42  89 SW5       30.05R
POCATELLO, ID  CLOUDY    52  43  71 SW9       30.00R
BURLEY         CLOUDY    53  40  61 SW9       29.99R
EVANSTON, WY   PTSUNNY   39  33  79 SW6       30.06R WCI  35
ROCK SPRINGS   SUNNY     43  36  76 SW8       30.05R
KEMMERER         N/A     41  36  81 S3        30.06R

$$




USA.gov is the U.S. government's official web portal to all federal, state and local government web resources and services.